Regional Weather Roundup
Issued by NWS

Home | Current Version | Previous Version | Text Only | Print | Product List | Glossary Off
Versions: 1 2 3 4 5 6 7 8 9 10 11 12 13 14 15 16 17 18 19 20 21 22 23 24 25 26 27 28 29 30 31 32 33 34 35 36 37 38 39 40 41 42 43 44 45 46 47 48 49 50

284
ASUS43 KDTX 241810
RWRMI
MICHIGAN HOURLY REGIONAL WEATHER ROUNDUP
NATIONAL WEATHER SERVICE DETROIT/PONTIAC MI
200 PM EDT TUE MAY 24 2016

NOTE: "FAIR" INDICATES FEW OR NO CLOUDS BELOW 12,000 FEET WITH NO
SIGNIFICANT WEATHER AND/OR OBSTRUCTION TO VISIBILITY.

MIZ047>049-052>055-059>063-066>070-074>076-081>083-241900-
SOUTHEAST LOWER MICHIGAN

CITY           SKY/WX    TMP DP  RH WIND       PRES   REMARKS
ADRIAN         SUNNY     82  49  31 W13       30.04F
6HR MIN TEMP:  54; 6HR MAX TEMP:  82;

ALMA           SUNNY     81  49  32 W8G17     29.99F
ANN ARBOR      SUNNY     82  49  31 SW10G20   30.02F
BAD AXE        SUNNY     82  46  29 SW5       29.99F
CARO           SUNNY     83  47  28 SW7       29.98F
DETROIT CITY   SUNNY     82  42  24 W8        30.02F
6HR MIN TEMP:  61; 6HR MAX TEMP:  83;

DETROIT        MOSUNNY   83  47  28 SW7       30.03F
6HR MIN TEMP:  60; 6HR MAX TEMP:  83;

FLINT          SUNNY     86  46  24 W9        30.00F
6HR MIN TEMP:  62; 6HR MAX TEMP:  87;

GROSSE ILE     SUNNY     73  50  43 S14       30.02F
HILLSDALE      MOSUNNY   81  35  18 SW9       30.04F
6HR MIN TEMP:  64; 6HR MAX TEMP:  81;

HOWELL         SUNNY     82  45  26 W7        30.01F
6HR MIN TEMP:  59; 6HR MAX TEMP:  83;


CITY           SKY/WX    TMP DP  RH WIND       PRES   REMARKS
JACKSON        SUNNY     81  49  32 W9        30.02F
6HR MIN TEMP:  58; 6HR MAX TEMP:  81;

LAMBERTVILLE   SUNNY     83  43  24 W7        30.04S
6HR MIN TEMP:  58; 6HR MAX TEMP:  83;

LANSING        SUNNY     83  50  31 W13       30.01F
6HR MIN TEMP:  60; 6HR MAX TEMP:  83;

LAPEER         FAIR      83  40  21 W9G16     30.01F
6HR MIN TEMP:  53; 6HR MAX TEMP:  83;

MASON          SUNNY     82  50  33 W9        30.01F
MONROE         SUNNY     83  46  27 W9        30.02F
6HR MIN TEMP:  57; 6HR MAX TEMP:  83;

MT. CLEMENS    MOSUNNY   81  50  33 SE12      30.00F
6HR MIN TEMP:  62; 6HR MAX TEMP:  82;

PONTIAC        MOSUNNY   82  46  28 W12       30.01F
6HR MIN TEMP:  59; 6HR MAX TEMP:  82;

PORT HOPE        N/A     63  55  75 VRB5      29.97R
6HR MIN TEMP:  62; 6HR MAX TEMP:  82;

PORT HURON     SUNNY     81  45  28 SW3G16    30.01F
TRI CITIES     MOSUNNY   85  47  26 W10       29.97F
6HR MIN TEMP:  61; 6HR MAX TEMP:  86;

MIDLAND        FAIR      84  47  26 W6        29.95F
6HR MIN TEMP:  54; 6HR MAX TEMP:  85;

TROY           SUNNY     84  43  23 W5        30.03F
SAGINAW HB     SUNNY     82  41  23 SW12      29.97F
$$
MIZ043>046-050>051-056>058-064>065-071>073-077>080-241900-
SOUTHWEST LOWER MICHIGAN

CITY           SKY/WX    TMP DP  RH WIND       PRES   REMARKS
BATTLE CREEK   SUNNY     81  50  33 W5        30.03F
6HR MIN TEMP:  58; 6HR MAX TEMP:  82;

BENTON HARBOR  SUNNY     81  53  37 W9        30.00F
6HR MIN TEMP:  63; 6HR MAX TEMP:  81;

BIG RAPIDS     SUNNY     80  48  32 SW10G21   29.97F
6HR MIN TEMP:  54; 6HR MAX TEMP:  82;

COLDWATER      PTSUNNY   81  51  35 W6        30.03F
6HR MIN TEMP:  60; 6HR MAX TEMP:  81;

FREMONT        FAIR      82  48  29 SW13G20   29.99S
HOLLAND        SUNNY     81  50  33 SW16G23   30.01F
6HR MIN TEMP:  66; 6HR MAX TEMP:  81;

GRAND RAPIDS   PTSUNNY   84  50  30 SW13G21   30.01F
6HR MIN TEMP:  60; 6HR MAX TEMP:  84;

IONIA          FAIR      82  48  29 W10       29.99F
6HR MIN TEMP:  61; 6HR MAX TEMP:  82;

KALAMAZOO      MOSUNNY   82  50  32 SW13G18   30.02F
6HR MIN TEMP:  59; 6HR MAX TEMP:  82;

LUDINGTON      SUNNY     78  51  39 SW17G23   29.97S
6HR MIN TEMP:  64; 6HR MAX TEMP:  79;

MARSHALL       MOSUNNY   82  52  35 NW9       30.02F
6HR MIN TEMP:  60; 6HR MAX TEMP:  83;

MOUNT PLEASANT SUNNY     83  51  32 W6        29.97F
6HR MIN TEMP:  54; 6HR MAX TEMP:  83;

MUSKEGON       PTSUNNY   78  50  37 SW12      30.00F
6HR MIN TEMP:  65; 6HR MAX TEMP:  79;

SOUTH HAVEN    SUNNY     80  46  30 SW10G17   30.01F
$$
MIZ016>042-241900-
NORTHERN LOWER MICHIGAN

CITY           SKY/WX    TMP DP  RH WIND       PRES   REMARKS
ALPENA         SUNNY     89  44  20 MISG      29.91F
6HR MIN TEMP:  57; 6HR MAX TEMP:  89;

BEAVER ISLAND  MOSUNNY   76  48  36 W13       29.93S
6HR MIN TEMP:  63; 6HR MAX TEMP:  76;

BELLAIRE       SUNNY     85  45  25 SW7       29.92F
6HR MIN TEMP:  57; 6HR MAX TEMP:  85;

CADILLAC       SUNNY     83  48  29 SW18G24   29.97R
CHARLEVOIX     SUNNY     81  49  32 W6G17     29.95F
FRANKFORT      SUNNY     78  52  40 S12       29.95S
GAYLORD        CLOUDY    84  43  23 S8G18     29.94F
6HR MIN TEMP:  67; 6HR MAX TEMP:  84;

GRAYLING       SUNNY     86  47  25 SW13G18   29.95F
6HR MIN TEMP:  61; 6HR MAX TEMP:  86;

HARBOR SPRINGS SUNNY     71  48  44 SW3       29.93F
HOUGHTON LAKE  SUNNY     82  45  27 W10       29.96F
6HR MIN TEMP:  63; 6HR MAX TEMP:  83;

MANISTEE       SUNNY     81  46  30 SW12G20   29.96S
OSCODA         SUNNY     87  44  22 S15G22    29.93F
6HR MIN TEMP:  59; 6HR MAX TEMP:  88;

PELLSTON       MOSUNNY   82  47  29 SW13G22   29.93F
6HR MIN TEMP:  66; 6HR MAX TEMP:  83;

ROGERS CITY    SUNNY     66  50  55 NE6       29.93S
TRAVERSE CITY  PTSUNNY   87  44  22 SW16      29.91F
6HR MIN TEMP:  67; 6HR MAX TEMP:  87;

$$
MIZ007>008-015-241900-
EASTERN UPPER MICHIGAN

CITY           SKY/WX    TMP DP  RH WIND       PRES   REMARKS
KINROSS          N/A     81  54  39 W7        29.91S
6HR MIN TEMP:  55; 6HR MAX TEMP:  81;

MACKINAC ISLAN PTSUNNY   71  46  39 W8        29.93S
6HR MIN TEMP:  62; 6HR MAX TEMP:  71;

NEWBERRY       CLOUDY    74  57  54 SW7       29.91S
6HR MIN TEMP:  58; 6HR MAX TEMP:  75; 6HR PCP:  0.22;

S. S. MARIE    MOSUNNY   79  52  38 CALM      29.90S
6HR MIN TEMP:  54; 6HR MAX TEMP:  79;

MUNISING         N/A     55  54  96 CALM      29.91F
6HR MIN TEMP:  54; 6HR MAX TEMP:  71; 6HR PCP:  0.06;

$$
MIZ004>006-011>014-085-241900-
CENTRAL UPPER MICHIGAN

CITY           SKY/WX    TMP DP  RH WIND       PRES   REMARKS
MANISTIQUE     CLOUDY    55  48  78 SE5       29.92F
6HR MIN TEMP:  54; 6HR MAX TEMP:  62;

ESCANABA       CLOUDY    70  54  56 S7        29.90S
6HR MIN TEMP:  61; 6HR MAX TEMP:  72;

MENOMINEE      CLOUDY    75  54  46 SW8       29.90S
SAWYER-GWINN   CLOUDY    66  61  82 SE5       29.91F
$$
MIZ001>003-009>011-084-241900-
WESTERN UPPER MICHIGAN

CITY           SKY/WX    TMP DP  RH WIND       PRES   REMARKS
IRON MOUNTAIN  LGT RAIN  72  62  71 SE7       29.89S
6HR MIN TEMP:  62; 6HR MAX TEMP:  75; 6HR PCP: TRACE;

HOUGHTON       LGT RAIN  58  55  90 NE7       29.91S
6HR MIN TEMP:  58; 6HR MAX TEMP:  69; 6HR PCP:  0.22;

COPPER HARBOR    N/A     52  51  97 N3        29.93R
6HR MIN TEMP:  50; 6HR MAX TEMP:  57; 6HR PCP:  0.12;

$$

ABBREVIATIONS USED IN REMARKS
   TC - TEMPERATURE IN CELSIUS
  WCI - WIND CHILL INDEX
   HX - HEAT INDEX
  VSB - VISIBILITY





USA.gov is the U.S. government's official web portal to all federal, state and local government web resources and services.